Regional Weather Roundup
Issued by NWS Albany, NY

Home | Current Version | Previous Version | Text Only | Print | Product List | Glossary On
Versions: 1 2 3 4 5 6 7 8 9 10 11 12 13 14 15 16 17 18 19 20 21 22 23 24 25 26 27
000
ASUS41 KALY 250810
RWRALY

NEW YORK STATE HOURLY WEATHER ROUNDUP
NATIONAL WEATHER SERVICE ALBANY NY
400 AM EDT SUN SEP 25 2016

NOTE: "FAIR" INDICATES FEW OR NO CLOUDS BELOW 12,000 FEET WITH NO
SIGNIFICANT WEATHER AND/OR NO OBSTRUCTIONS TO VISIBILITY.

NYZ032-033-038>043-046>054-057>066-NYZ062>081-082-084-250900-
EAST


CITY           SKY/WX    TMP DP  RH WIND       PRES   REMARKS
ALBANY         CLEAR     43  39  86 CALM      30.19R
GLENS FALLS    CLEAR     37  34  89 CALM      30.18F
POUGHKEEPSIE   CLEAR     40  39  97 CALM      30.16F
NEWBURGH       CLEAR     45  43  93 VRB6      30.18S
MONTGOMERY     CLEAR     44  40  85 CALM      30.17F
WHITE PLAINS   CLEAR     51  39  63 NW3       30.15S
ISLIP          CLEAR     55  42  61 N7        30.13S
NEW YORK CITY  CLEAR     60  45  57 N7        30.15S
CENTRAL PARK   CLEAR     56  42  59 CALM      30.18F
$$

NYZ005>009-017-018-044>046-055-056-250900-
CENTRAL


CITY           SKY/WX    TMP DP  RH WIND       PRES   REMARKS
FULTON         CLEAR     41  38  89 CALM      30.23S
SYRACUSE       PTCLDY    44  41  89 CALM      30.22S
ROME           CLEAR     39  38  96 CALM      30.23S
ELMIRA         MOCLDY    40  37  89 SW3       30.21F
BINGHAMTON     CLEAR     43  38  82 N8        30.19F
MONTICELLO     CLEAR     39  37  93 CALM      30.20S
$$

NYZ026>034-041>043-087-250900-
NORTH


CITY           SKY/WX    TMP DP  RH WIND       PRES   REMARKS
WATERTOWN      CLEAR     33  32  96 CALM      30.24S
FORT DRUM      NOT AVBL
OGDENSBURG     FAIR      35  34  96 CALM      30.24R
MASSENA        CLEAR     37  34  89 CALM      30.24S
SARANAC LAKE   CLEAR     28  25  88 CALM      30.18S
PLATTSBURGH    CLEAR     44  36  73 W6        30.18S
$$

NYZ001>004-010>016-019>021-085-250900-
WEST


CITY           SKY/WX    TMP DP  RH WIND       PRES   REMARKS
NIAGARA FALLS  CLEAR     48  41  76 CALM      30.23F
BUFFALO        CLEAR     46  40  79 CALM      30.24S
DUNKIRK        CLEAR     42  38  85 CALM      30.23F
JAMESTOWN      CLEAR     41  36  81 SW3       30.23S
WELLSVILLE     CLOUDY    41  38  89 CALM      30.24F
ROCHESTER      PTCLDY    46  42  86 SW3       30.24S
PENN YAN       CLEAR     48  40  73 CALM      30.23S
$$

             KEY
       WCI = WIND CHILL INDEX
       VSB = VISIBILITY
       HX  = HEAT INDEX
$$




USA.gov is the U.S. government's official web portal to all federal, state and local government web resources and services.